www.pogodaiklimat.ru

Погода и климат >> Архив погоды >> Доминиканская Республика >> Barahona


ПОГОДА в Barahona

  • Прогноз погоды в Barahona
  • Монитор погоды в Barahona
  • Климат города

АРХИВ ПОГОДЫ в Barahona

Время (UTC), дата Ветер
(напр.,м/с)
 
Видим.   Явления Облачность Т
(С)
Тd
(С)
f
(%)
Тe
(С)
Тes
(С)
Комфортность P
(гПа)
Po
(гПа)
Тmin
(С)
Tmax
(С)
R
(мм)
R24
(мм)
S
(см)
12 14.05 штиль 0 16 км 9/3 480 м
[Cb cap Ac As Cs]
+26.2 +21.8 77 +34 +36 очень
душно
1016.2 1016.0 +24.0 +30.2
15 14.05 ЮВ 4 16 км 5/4 600 м
[Cb cap Ac und Ci fib]
+29.2 +22.7 68 +39 +45 очень
душно
1018.2 1018.0
18 14.05 ЮВ 7 16 км 8/5 600 м
[Cb cap Ac und Cs]
+29.2 +23.3 71 +40 +42 очень
душно
1017.2 1017.0 +24.0 +30.5
21 14.05 ЮВ 7 16 км 8/5 600 м
[Cb cap Ac und Cs]
+29.2 +23.3 71 +40 +40 очень
душно
1017.2 1017.0 +24.0 +30.5
00 15.05 ЮВ 6 16 км 9/6 540 м
[Cb cap Ac und Cs]
+26.8 +23.5 82 +36 +36 очень
душно
1015.2 1015.0 +24.0 +30.5
12 15.05 З 3 16 км 8/6 300 м
[Cb cap Ac und Cs]
+22.6 +22.0 96 +30 +31 очень
душно
1016.8 1017.0 +22.0 +30.5 27
15 15.05 ЮВ 8 16 км 8/5 600 м
[Cb cap Ac trans Cs]
+28.4 +23.4 74 +38 +40 очень
душно
1018.0 1018.0
18 15.05 ЮВ 9 16 км 8/5 660 м
[Cb cap Ac trans Ci fib]
+29.2 +22.7 68 +39 +39 очень
душно
1017.4 1017.0 +22.0 +29.6
21 15.05 ЮВ 5 16 км 9/6 540 м
[Cb cap Ac As Cs]
+27.8 +23.8 79 +38 +39 очень
душно
1016.0 1016.0
00 16.05 ЮВ 5 16 км {дождь} 8/6 480 м
[Cb cap Ac As Cs]
+25.2 +23.0 88 +34 +34 очень
душно
1016.5 1017.0 +22.0 +29.6 0.8
12 16.05 штиль 0 16 км 6/4 480 м
[Cb cap Ac trans Ci fib]
+24.6 +22.4 88 +32 +35 очень
душно
1016.2 1016.0 +23.0 +29.6
15 16.05 ЮВ 6 16 км 8/5 600 м
[Cb cap Ac As Cs]
+28.0 +22.5 72 +37 +39 очень
душно
1017.5 1018.0
18 16.05 ЮВ 6 16 км 8/6 600 м
[Cb cap Ac trans Ci fib]
+27.8 +22.3 72 +36 +39 очень
душно
1016.9 1017.0 +23.0 +29.6
21 16.05 ЮВ 6 16 км 6/5 600 м
[Cb cap Ac trans Ci fib]
+28.2 +22.5 71 +37 +38 очень
душно
1015.4 1015.0
00 17.05 ЮВ 6 16 км 8/5 480 м
[Cb cap Ac As Cs]
+26.4 +22.3 78 +34 +34 очень
душно
1015.8 1016.0 +23.0 +29.6
12 17.05 В 3 16 км 8/5 480 м
[Cb cap Ac As Cs]
+24.0 +21.5 86 +31 +32 очень
душно
1016.2 1016.0 +22.8 +29.6 3
15 17.05 ЮВ 5 16 км 6/4 540 м
[Cb cap Ac trans Cs]
+28.2 +23.0 73 +38 +42 очень
душно
1017.6 1018.0
00 18.05 ЮВ 8 16 км {дождь} 8/5 540 м
[Cb cap Ac As Cs]
+26.4 +23.5 84 +36 +36 очень
душно
1015.0 1015.0 +22.8 +29.6
12 18.05 ЮВ 2 16 км 9/4 420 м
[Cb cap Ac As Cs]
+23.8 +22.4 92 +31 +32 очень
душно
1016.4 1016.0 +22.5 +29.6 0.5
15 18.05 ЮВ 8 16 км 8/3 700 м
[Cu med, cong Ac trans Cs]
+28.9 +21.3 64 +37 +38 очень
душно
1016.8 1017.0
18 18.05 ЮВ 9 16 км 8/3 700 м
[Cu med, cong Ac trans Cs]
+29.8 +21.8 62 +38 +39 очень
душно
1015.8 1016.0 +22.5 +30.1
21 18.05 ЮВ 9 16 км 8/1 660 м
[Cu med, cong Ac trans Cs]
+29.2 +22.4 67 +38 +39 очень
душно
1014.6 1015.0
00 19.05 ЮВ 6 16 км 9/5 540 м
[Cb cap Ac trans Cs]
+26.7 +23.0 80 +36 +36 очень
душно
1015.2 1015.0 +22.5 +30.3
12 19.05 штиль 0 16 км 8/5 480 м
[Cb cap Ac und Cs]
+25.0 +22.8 88 +33 +35 очень
душно
1017.2 1017.0 +23.5 +30.3 3
15 19.05 ЮВ 8 16 км 4/4 660 м
[Sc]
+28.8 +21.9 66 +37 +39 очень
душно
1018.3 1018.0
18 19.05 ЮВ 7 16 км 6/1 800 м
[Sc Ci fib]
+29.8 +22.0 63 +38 +43 очень
душно
1016.8 1017.0 +23.5 +30.4
21 19.05 ЮВ 8 16 км 8/3 540 м
[Cb cap Ci fib]
+28.6 +22.2 68 +37 +38 очень
душно
1015.3 1015.0
00 20.05 Ю 6 16 км 5/5 540 м
[Cu Sc]
+26.5 +22.5 79 +35 +35 очень
душно
1016.4 1016.0 +23.5 +30.6
12 20.05 Ю 4 16 км 9/3 480 м
[Cb cap Ac As]
+26.0 +22.1 79 +34 +34 очень
душно
1017.3 1017.0 +23.7 +30.6
15 20.05 ЮВ 9 18 км дождь 9/4 540 м
[Cb cap Ac As]
+25.6 +22.8 85 +34 +34 очень
душно
1018.3 1018.0
18 20.05 ЮВ 8 16 км {дождь} 9/3 540 м
[Cb cap Ac As]
+26.8 +22.7 78 +35 +36 очень
душно
1017.2 1017.0 +23.7 +29.0 0.0
21 20.05 ЮВ 9 16 км 9/4 600 м
[Cb cap Ac As]
+27.9 +22.9 74 +37 +37 очень
душно
1015.8 1016.0
00 21.05 В 6 16 км 6/6 540 м
[Cu Sc]
+26.5 +22.8 80 +35 +35 очень
душно
1016.1 1016.0 +20.7 +29.2

 

Местоположение метеостанции Barahona (Доминиканская Республика): широта 18.20 долгота -71.10 высота над уровнем моря 3 м.

В архиве по умолчанию представлена погода в Barahona за последнюю неделю. Архивные данные за месяц целиком и за предыдущие месяцы, начиная с января 2011 года, Вы можете получить, выбрав интересующий диапазон дат из раскрывающегося списка и нажав кнопку "Ввод!".


*Определитесь, кто Вы:
робот инопланетянин человек

Внимание! Время в таблицах - всемирное. Для получения местного времени необходимо прибавить поправку, которая в Barahona равна -4 ч.

Смотрите также архив погоды в соседних городах и на ближайших метеорологических станциях:

Погода в Santo Domingo (Доминиканская Республика) (131 км)
Погода в Santiago (Доминиканская Республика) (145 км)
Погода в Las Americas (Доминиканская Республика) (154 км)
Погода в Puerto Plata (Доминиканская Республика) (182 км)
Погода в Sabana De La Mar (Доминиканская Республика) (204 км)
Погода в La Romana Int Airport (Доминиканская Республика) (232 км)
Погода в Punta Cana (Доминиканская Республика) (292 км)
Погода в Punta de Maisi (Куба) (393 км)
Погода в Santiago de Cuba (Куба) (537 км)
Погода в Punta Lucrecia (Куба) (570 км)

Пояснения к столбцам:

Ветер - указаны скорость ветра в м/с - средняя за 10 мин, порывы в срок и между сроками (в фигурных скобках) и направление, откуда дует ветер: С - северный, СВ - северо-восточный, В - восточный, ЮВ - юго-восточный, Ю - южный, ЮЗ - юго-западный, З - западный, СЗ - северо-западный.
Видимость - горизонтальная дальность видимости в метрах или километрах. При видимости от 1 до 10 км при отсутствии осадков обычно наблюдается дымка, при ухудшении видимости до 1 км и менее - туман. В сухую погоду видимость может ухудшаться дымом, пылью или мглою.
Явления - указаны атмосферные явления, наблюдавшиеся в срок или в последний час перед сроком; фигурными скобками обозначены явления, наблюдавшиеся между сроками (за 1-3 часа до срока); квадратными скобками обозначены град или гололедные отложения с указанием их диаметра в мм.
Облачность - указаны через наклонную черту общая и нижняя облачность в баллах и высота нижней границы облаков в метрах; квадратными скобками обозначены формы облаков: Ci - перистые, Cs - перисто-слоистые, Cc - перисто-кучевые, Ac - высококучевые, As - высокослоистые, Sc - слоисто-кучевые, Ns - слоисто-дождевые, Cu - кучевые, Cb - кучево-дождевые. Подробнее классификацию облаков см. в Атласе облаков (PDF).
T - Температура воздуха - температура, измеренная на высоте 2 м над землей.
Td - Температура точки росы - температура, при понижении до которой содержащийся в воздухе водяной пар достигнет насыщения.
f - Относительная влажность воздуха - влажноcть воздуха, измеренная на высоте 2 м над землей.
Te - Эффективная температура - температура, которую ощущает одетый по сезону человек в тени. Характеристика душности погоды. При расчете учитывается влияние влажности воздуха и скорости ветра на теплоощущения человека.
Tes - Эффективная температура на солнце - температура, которую ощущает человек, с поправкой на солнечный нагрев. Характеристика знойности погоды. Зависит от высоты солнца над горизонтом, облачности и скорости ветра. Ночью, в пасмурную погоду, а также при ветре 12 м/с и более поправка равна нулю.
P - Атмосферное давление - приведенное к уровню моря атмосферное давление.
Po - Атмосферное давление - измеренное на уровне метеостанции атмосферное давление.
Tmin - Минимальная температура - минимум температуры воздуха на высоте 2 м над землей.
Tmax - Максимальная температура - максимум температуры воздуха на высоте 2 м над землей.
R - Количество осадков - Количество выпавших осадков за период времени, мм. При наведении курсора мыши на число - период времени, за который выпало указанное количество осадков.
R24 - Количество осадков - Количество выпавших осадков за 24 часа, мм.
S - Снежный покров - Высота снежного покрова, см. При наведении курсора мыши на число - состояние снежного покрова и степень покрытия местности в баллах.